Temp
7 6 6 6 6 5 5 5 5 5 5 5 5 5 5 5 5 5 5 5 5 5 5 5 5 5 4 4 5 5 4 4 4 4 4 4 3 3 3 3 3 4 4 4 4 4 4 4 4 4 4 4 4 4 4 4 4 4 4 4 4 4 4 4 4 4 4 4 4 4 4 4 4 4 4 4 4 4 4 4 4 5 5 5 5 5
6 5 5 5 5 5 5 4 4 5 5 5 5 5 5 5 5 5 5 5 5 5 5 4 4 4 4 4 4 4 4 4 4 3 3 3 3 3 3 3 3 3 3 3 3 3 3 3 3 3 3 3 4 4 4 4 4 4 4 4 4 4 4 3 3 3 3 3 3 3 4 4 4 4 4 4 4 4 4 4 4 4 4 4 4 5
5 5 4 4 4 4 4 4 4 4 5 5 5 5 5 5 5 5 5 5 4 4 4 4 4 3 3 3 4 4 3 3 3 3 3 3 3 3 3 3 3 3 3 3 3 3 3 3 3 3 3 3 3 3 3 3 3 3 3 3 3 3 3 3 3 3 3 3 3 3 3 3 3 3 3 3 3 3 3 3 3 4 4 4 4 4
4 4 4 4 4 4 4 4 3 4 4 4 5 5 5 5 4 4 4 4 4 4 4 4 3 3 3 3 3 3 3 3 3 3 3 2 2 2 2 2 2 2 2 2 2 2 2 2 2 2 2 2 2 2 2 2 2 2 2 3 3 3 3 3 3 3 3 3 3 3 3 3 3 3 3 3 3 3 3 3 3 3 3 3 4 4
4 4 4 3 3 3 3 3 3 3 4 4 4 4 4 4 4 4 4 4 4 4 4 3 3 2 2 2 3 3 3 2 2 2 2 2 2 2 2 2 2 2 2 2 2 2 2 2 2 2 2 2 2 2 2 2 2 2 2 2 2 2 2 2 2 2 2 2 2 2 2 2 3 3 3 3 3 3 3 3 3 3 3 3 3 3
4 4 4 3 3 3 3 3 3 3 4 4 4 4 4 4 4 3 3 3 3 3 3 3 2 2 2 2 2 3 2 2 2 2 2 2 2 2 2 2 2 2 2 2 2 2 2 2 2 2 2 2 1 1 1 1 1 1 1 1 1 1 2 2 2 2 2 2 2 2 2 2 2 2 2 2 2 2 2 2 2 2 2 3 3 3
3 3 3 3 3 3 3 3 3 3 3 3 3 3 3 3 3 3 3 3 2 2 2 2 2 1 1 1 2 2 2 2 2 2 2 2 2 2 2 2 2 2 2 2 2 1 1 1 1 1 1 1 1 1 1 1 1 1 1 1 1 1 1 1 1 1 1 1 1 2 2 2 2 2 2 2 2 2 2 2 2 2 2 2 2 3
3 2 3 3 3 2 3 3 3 3 3 3 3 2 2 2 2 2 2 2 1 1 1 1 1 1 1 1 2 2 2 2 2 2 2 1 1 1 1 1 1 1 1 1 1 1 1 1 1 1 1 1 1 1 1 1 1 1 1 1 1 1 1 1 1 1 1 1 1 1 1 1 1 1 1 1 1 1 2 2 2 2 2 2 2 2
3 2 2 2 2 2 2 2 3 3 3 3 3 2 2 2 1 1 1 1 1 1 1 1 1 1 1 1 2 2 2 2 2 2 2 1 1 1 1 1 1 1 1 1 1 1 1 1 1 1 1 1 1 1 1 1 1 1 1 1 1 1 1 0 0 0 0 0 1 1 1 1 1 1 1 1 1 1 1 1 1 1 2 2 2 2
3 2 2 2 2 2 2 2 2 2 3 3 3 3 2 2 1 1 1 1 1 0 0 1 1 1 1 1 1 2 2 2 2 2 2 2 1 1 1 1 1 1 1 1 1 1 1 1 1 1 1 0 0 0 1 1 1 1 1 1 0 0 0 0 0 0 0 0 0 0 0 0 0 0 0 0 0 0 1 1 1 1 1 1 2 2
3 3 2 2 2 2 2 2 2 2 2 2 2 2 2 2 2 1 1 1 0 0 0 1 1 1 1 1 1 1 1 1 2 2 2 2 2 1 1 1 1 1 1 1 1 1 1 1 0 0 0 0 0 0 0 1 1 1 0 0 0 0 -0 -0 -0 -0 -0 -0 -0 -0 -0 -0 -0 -0 -0 -0 0 0 0 0 0 1 1 1 1 1
3 3 2 2 2 2 2 2 2 2 2 1 1 1 1 1 2 2 1 1 0 0 0 0 1 1 1 1 1 1 1 1 1 1 1 1 1 1 1 1 1 1 1 1 1 1 1 1 0 0 0 0 0 0 0 0 0 0 0 0 -0 -0 -0 -0 -1 -1 -1 -1 -1 -1 -1 -1 -1 -0 -0 -0 -0 -0 -0 -0 0 0 0 1 1 1
3 2 2 2 1 1 1 1 1 1 1 1 1 1 1 1 1 2 2 1 1 1 0 0 0 1 1 1 1 1 1 1 1 1 1 1 1 1 1 1 1 1 1 1 1 1 1 0 0 0 0 -0 -0 -0 -0 -0 -0 -0 -0 -0 -0 -0 -1 -1 -1 -1 -1 -1 -1 -1 -1 -1 -1 -1 -1 -1 -0 -0 -0 -0 -0 -0 0 0 0 1
2 2 2 1 1 1 1 1 1 1 1 1 2 2 1 1 1 1 1 1 1 1 1 0 0 0 0 0 1 1 1 1 1 1 1 1 1 1 1 1 1 1 1 1 1 0 0 0 0 -0 -0 -0 -0 -0 -0 -0 -0 -0 -0 -1 -1 -1 -1 -1 -1 -1 -1 -1 -1 -1 -1 -1 -1 -1 -1 -1 -1 -1 -1 -0 -0 -0 -0 -0 0 0
2 2 2 2 2 1 1 1 2 2 2 1 2 2 2 2 1 1 1 1 1 1 0 0 0 0 -0 -1 -0 1 1 1 1 1 1 1 1 1 1 1 1 1 1 0 0 0 0 0 0 -0 -0 -0 -0 -0 -0 -0 -1 -1 -1 -1 -1 -1 -1 -1 -1 -1 -1 -1 -1 -1 -1 -1 -1 -1 -1 -1 -1 -1 -1 -1 -1 -1 -0 -0 -0 0
2 3 3 3 2 2 1 1 2 2 2 1 2 2 2 1 1 1 1 1 0 0 -0 -0 -0 -0 -0 -1 -0 0 0 1 1 1 1 1 1 1 1 0 0 0 0 0 0 0 0 -0 -0 -0 -0 -0 -0 -0 -1 -1 -1 -1 -1 -1 -1 -1 -1 -1 -1 -1 -1 -1 -2 -2 -2 -2 -2 -1 -1 -1 -1 -1 -1 -1 -1 -1 -1 -1 -0 -0
3 3 3 3 3 2 1 1 2 2 2 2 2 2 2 2 1 1 1 1 0 -0 -0 -0 -0 -0 -0 -1 -0 -0 -0 0 0 0 1 1 0 0 0 0 0 0 0 0 -0 -0 -0 -0 -0 -0 -0 -0 -0 -1 -1 -1 -1 -1 -1 -1 -1 -1 -1 -2 -2 -2 -2 -2 -2 -2 -2 -2 -2 -2 -2 -1 -1 -1 -1 -1 -1 -1 -1 -1 -1 -1
3 3 3 3 3 2 1 1 2 2 2 2 1 2 2 2 2 2 1 1 0 -0 -0 -0 0 0 0 0 -0 -0 0 0 0 0 0 0 0 0 0 0 -0 -0 -0 -0 -0 -0 -0 -0 -0 -0 -0 -0 -1 -1 -1 -1 -1 -1 -1 -2 -2 -2 -2 -2 -2 -2 -2 -2 -2 -2 -2 -2 -2 -2 -2 -2 -1 -1 -1 -1 -1 -1 -1 -1 -1 -1
3 3 3 3 3 2 2 2 2 2 1 2 2 1 1 1 2 1 1 1 1 0 0 -0 0 1 1 1 1 1 0 0 -0 -0 -0 -0 0 0 -0 -0 -0 -0 -0 -0 -0 -0 -0 -0 -0 -1 -1 -1 -1 -1 -1 -1 -1 -2 -2 -2 -2 -2 -2 -2 -2 -2 -2 -2 -2 -2 -2 -2 -2 -2 -2 -2 -2 -2 -2 -2 -1 -1 -1 -1 -1 -1
3 3 3 3 3 2 2 2 2 2 2 2 2 2 1 1 1 1 1 1 1 1 1 0 0 1 2 1 1 1 1 0 -0 -0 -0 -0 -0 0 -0 -0 -0 -0 -0 -1 -1 -0 -1 -1 -1 -1 -1 -1 -1 -1 -1 -1 -2 -2 -2 -2 -2 -2 -2 -2 -2 -2 -2 -2 -2 -2 -2 -2 -2 -2 -2 -2 -2 -2 -2 -2 -2 -2 -1 -1 -1 -1
3 3 4 4 3 3 2 2 3 3 3 3 2 2 1 1 1 0 1 1 1 1 1 1 1 1 1 2 1 1 0 0 -0 -0 -0 -0 -0 -0 -0 -0 -0 -0 -1 -1 -1 -1 -1 -1 -1 -1 -1 -1 -1 -1 -1 -2 -2 -2 -2 -2 -2 -2 -2 -2 -2 -2 -2 -2 -2 -2 -2 -2 -2 -2 -2 -2 -2 -2 -2 -2 -2 -2 -2 -2 -1 -1
3 3 4 4 4 4 3 4 4 4 3 3 2 2 1 1 0 0 1 1 1 1 1 1 1 1 1 1 1 0 -0 -0 -0 -0 -1 -1 -1 -0 -0 -0 -1 -1 -1 -1 -1 -1 -1 -1 -1 -1 -1 -1 -1 -1 -1 -1 -2 -2 -2 -2 -2 -2 -2 -2 -2 -2 -2 -2 -2 -2 -2 -2 -2 -3 -3 -2 -2 -2 -2 -2 -2 -2 -2 -2 -2 -1
3 3 4 4 4 4 4 4 4 4 3 3 3 2 2 2 2 2 2 2 1 1 1 1 1 1 1 1 0 -0 -0 -1 -1 -1 -1 -1 -1 -0 -1 -1 -1 -1 -1 -1 -1 -1 -1 -1 -1 -1 -1 -1 -1 -1 -1 -1 -1 -1 -2 -2 -2 -2 -2 -2 -2 -2 -2 -2 -2 -2 -2 -3 -3 -3 -3 -3 -3 -2 -2 -2 -2 -2 -2 -2 -2 -2
3 3 3 3 3 3 3 3 3 3 3 3 3 3 3 3 3 3 2 2 2 1 1 1 0 0 -0 -0 -0 -0 -1 -1 -1 -1 -1 -1 -1 -1 -1 -1 -1 -1 -2 -2 -1 -1 -1 -1 -1 -1 -1 -1 -1 -1 -1 -1 -1 -2 -2 -2 -2 -2 -2 -2 -2 -2 -2 -2 -2 -2 -2 -3 -3 -3 -3 -3 -3 -3 -3 -3 -2 -2 -2 -2 -2 -2
3 3 3 3 3 3 3 3 3 3 3 3 2 2 2 2 2 2 2 2 1 1 1 0 -0 -1 -1 -1 -1 -1 -1 -1 -1 -1 -1 -1 -1 -1 -1 -1 -1 -1 -2 -2 -2 -2 -2 -2 -2 -2 -2 -1 -1 -1 -1 -1 -1 -2 -2 -2 -2 -2 -2 -2 -2 -2 -2 -2 -2 -2 -2 -2 -2 -2 -3 -3 -3 -3 -3 -3 -3 -3 -3 -3 -3 -2
3 3 3 3 3 3 3 3 3 3 3 2 2 2 2 2 2 1 1 1 0 0 -0 -1 -1 -1 -1 -1 -1 -1 -1 -1 -1 -1 -1 -1 -1 -1 -1 -1 -1 -1 -2 -2 -2 -2 -2 -2 -2 -2 -2 -2 -1 -1 -1 -2 -2 -2 -2 -2 -2 -2 -2 -2 -2 -2 -2 -2 -2 -2 -2 -2 -2 -2 -2 -3 -3 -3 -3 -3 -3 -3 -3 -3 -3 -3
3 3 3 3 3 2 2 3 3 2 2 2 2 2 2 2 1 0 -0 -0 -0 -0 -0 -1 -1 -2 -2 -2 -1 -1 -1 -1 -2 -2 -2 -2 -2 -2 -2 -2 -2 -2 -2 -2 -2 -2 -2 -2 -2 -2 -2 -2 -2 -2 -2 -2 -2 -2 -2 -2 -2 -2 -3 -3 -2 -2 -2 -2 -2 -2 -2 -2 -2 -2 -3 -3 -3 -3 -3 -3 -3 -3 -3 -3 -3 -3
2 2 2 2 2 2 2 2 2 2 2 2 2 2 2 1 1 0 -0 0 0 0 -0 -1 -1 -1 -2 -2 -2 -1 -1 -2 -2 -2 -2 -2 -2 -2 -2 -2 -2 -2 -2 -2 -2 -2 -2 -2 -2 -2 -2 -2 -2 -2 -2 -2 -2 -2 -2 -3 -3 -3 -3 -3 -3 -2 -2 -2 -2 -2 -3 -3 -3 -3 -3 -3 -3 -3 -3 -3 -3 -3 -3 -3 -3 -3
2 2 2 2 2 2 2 2 2 2 2 1 1 1 1 1 1 1 1 1 0 -0 -0 -0 -0 -1 -1 -2 -2 -2 -2 -2 -2 -2 -2 -2 -2 -2 -2 -2 -2 -2 -2 -2 -2 -2 -2 -2 -2 -2 -2 -2 -2 -2 -2 -2 -2 -2 -3 -3 -3 -3 -3 -3 -3 -2 -2 -2 -2 -2 -3 -3 -3 -3 -3 -3 -3 -3 -3 -3 -3 -3 -3 -3 -3 -3
1 1 1 1 1 1 2 2 1 1 1 1 1 1 1 1 1 1 1 1 0 0 -0 -0 -0 -1 -1 -2 -2 -2 -2 -2 -2 -2 -3 -3 -2 -2 -2 -2 -2 -2 -2 -2 -2 -2 -2 -2 -2 -2 -2 -2 -3 -3 -3 -3 -3 -3 -3 -3 -3 -3 -3 -3 -3 -2 -2 -2 -2 -2 -3 -3 -3 -3 -3 -3 -3 -3 -3 -3 -3 -3 -3 -3 -3 -3
1 1 1 1 1 1 1 1 0 -0 -0 -0 0 0 0 0 0 0 1 0 0 0 -0 -0 -1 -1 -1 -2 -2 -2 -2 -2 -2 -3 -3 -3 -2 -3 -3 -3 -3 -3 -3 -2 -2 -2 -2 -3 -3 -3 -3 -3 -3 -3 -3 -3 -3 -3 -3 -3 -3 -3 -3 -3 -3 -2 -2 -2 -2 -2 -2 -3 -3 -3 -3 -3 -3 -3 -3 -3 -3 -3 -3 -3 -3 -3
0 1 1 1 1 1 1 0 -0 -1 -1 -0 -0 -0 -0 -0 -0 -0 -0 -0 -0 -0 -0 -0 -1 -1 -1 -1 -1 -1 -1 -2 -2 -2 -3 -3 -3 -3 -3 -3 -3 -3 -3 -2 -2 -1 -2 -3 -3 -3 -3 -3 -3 -3 -3 -3 -3 -3 -3 -3 -3 -3 -3 -3 -3 -3 -3 -3 -2 -2 -2 -2 -2 -3 -3 -3 -3 -3 -3 -3 -3 -3 -3 -3 -3 -3
-0 -0 -0 -0 -0 -0 -0 -0 -0 -1 -1 -1 -1 -1 -1 -1 -1 -1 -1 -1 -1 -1 -1 -1 -1 -1 -1 -1 -1 -1 -2 -2 -2 -2 -3 -3 -3 -3 -3 -3 -3 -3 -3 -3 -3 -2 -2 -3 -3 -3 -3 -3 -3 -3 -3 -3 -3 -3 -3 -3 -3 -3 -3 -3 -3 -3 -3 -3 -3 -3 -3 -2 -2 -2 -3 -3 -3 -3 -3 -3 -3 -3 -3 -3 -3 -3
-1 -1 -1 -1 -1 -1 -1 -1 -1 -1 -1 -1 -1 -1 -1 -1 -1 -1 -1 -1 -1 -1 -1 -1 -1 -1 -1 -2 -2 -2 -2 -2 -2 -3 -3 -3 -3 -3 -3 -3 -3 -3 -3 -3 -3 -3 -3 -3 -3 -3 -3 -3 -3 -3 -3 -3 -3 -3 -3 -3 -3 -3 -3 -3 -3 -3 -3 -3 -3 -3 -3 -2 -2 -2 -2 -3 -3 -3 -3 -3 -3 -3 -3 -3 -3 -3
-1 -1 -1 -2 -2 -2 -2 -2 -2 -2 -2 -1 -1 -1 -1 -1 -1 -2 -2 -2 -2 -2 -2 -2 -2 -2 -2 -2 -2 -2 -2 -2 -3 -3 -3 -3 -3 -3 -3 -3 -3 -3 -3 -3 -3 -3 -3 -3 -3 -3 -3 -3 -3 -3 -3 -3 -3 -3 -3 -3 -3 -3 -3 -3 -3 -3 -3 -3 -3 -3 -2 -2 -2 -2 -2 -2 -3 -3 -3 -4 -4 -4 -3 -3 -3 -3
-2 -2 -2 -2 -2 -2 -2 -2 -2 -2 -2 -2 -2 -2 -2 -2 -2 -2 -2 -2 -2 -2 -2 -2 -2 -2 -2 -2 -2 -2 -2 -2 -3 -3 -3 -3 -3 -3 -3 -3 -3 -3 -3 -4 -4 -4 -4 -4 -4 -4 -4 -4 -4 -4 -3 -3 -3 -4 -4 -3 -3 -3 -3 -3 -3 -3 -3 -3 -3 -3 -2 -2 -2 -2 -2 -3 -3 -3 -3 -3 -3 -3 -3 -3 -3 -3
-2 -2 -2 -2 -2 -2 -2 -2 -2 -2 -2 -2 -3 -3 -2 -2 -2 -2 -2 -2 -2 -2 -2 -2 -2 -2 -2 -2 -2 -2 -2 -2 -3 -3 -3 -3 -3 -3 -3 -3 -3 -4 -4 -4 -4 -4 -4 -4 -4 -4 -4 -4 -4 -4 -4 -4 -4 -4 -4 -4 -4 -3 -3 -3 -3 -3 -3 -3 -3 -3 -3 -3 -3 -3 -3 -3 -3 -3 -3 -3 -3 -3 -3 -3 -3 -3
-2 -2 -2 -2 -2 -2 -2 -2 -2 -2 -2 -2 -2 -3 -3 -3 -3 -3 -3 -3 -3 -3 -3 -3 -3 -3 -3 -3 -3 -3 -3 -3 -3 -3 -3 -3 -3 -3 -3 -3 -4 -4 -4 -4 -4 -4 -4 -4 -4 -4 -5 -5 -4 -4 -4 -4 -4 -4 -4 -4 -4 -4 -4 -3 -3 -3 -3 -3 -3 -3 -3 -3 -3 -4 -3 -3 -3 -3 -3 -3 -3 -3 -3 -3 -3 -3
-2 -2 -2 -2 -2 -2 -2 -2 -2 -2 -2 -2 -2 -3 -3 -3 -3 -3 -3 -3 -3 -3 -3 -3 -3 -3 -3 -3 -3 -3 -3 -3 -3 -3 -3 -4 -4 -4 -4 -4 -4 -4 -4 -4 -4 -4 -5 -5 -4 -4 -4 -4 -4 -4 -4 -4 -4 -4 -4 -4 -4 -4 -4 -4 -4 -4 -4 -4 -4 -4 -4 -4 -4 -4 -4 -4 -4 -4 -4 -4 -3 -3 -3 -3 -3 -3
-2 -2 -2 -2 -2 -2 -3 -3 -3 -3 -3 -3 -3 -3 -3 -3 -3 -3 -3 -3 -3 -3 -3 -3 -3 -3 -3 -3 -3 -3 -3 -3 -3 -4 -4 -4 -4 -4 -4 -4 -4 -4 -4 -4 -5 -5 -5 -5 -5 -5 -5 -5 -4 -4 -5 -5 -5 -5 -5 -5 -5 -4 -4 -4 -4 -4 -4 -4 -4 -4 -4 -4 -4 -4 -4 -4 -4 -4 -4 -4 -4 -3 -3 -3 -3 -3
-2 -2 -2 -3 -3 -3 -3 -3 -3 -3 -3 -3 -3 -3 -3 -3 -3 -3 -3 -3 -3 -3 -3 -3 -3 -3 -4 -4 -4 -4 -4 -4 -4 -4 -4 -4 -4 -4 -4 -4 -4 -4 -4 -5 -5 -5 -5 -5 -5 -5 -5 -5 -5 -5 -5 -5 -5 -5 -6 -6 -6 -5 -5 -4 -4 -4 -4 -4 -4 -4 -5 -5 -5 -5 -5 -5 -5 -4 -4 -4 -4 -4 -3 -3 -3 -3
-2 -3 -3 -3 -3 -3 -3 -3 -3 -3 -3 -3 -3 -3 -3 -3 -3 -3 -3 -3 -3 -3 -3 -3 -3 -3 -4 -4 -4 -4 -4 -4 -4 -4 -4 -4 -4 -4 -4 -4 -4 -4 -5 -5 -5 -5 -5 -5 -6 -6 -6 -6 -6 -6 -6 -6 -6 -6 -6 -6 -6 -6 -6 -5 -5 -5 -4 -5 -5 -5 -5 -5 -5 -5 -5 -5 -5 -5 -4 -4 -4 -4 -4 -3 -3 -3
-3 -3 -3 -3 -3 -3 -3 -3 -3 -3 -3 -3 -3 -3 -3 -3 -3 -3 -3 -3 -3 -3 -3 -3 -3 -4 -4 -4 -4 -4 -4 -4 -4 -4 -4 -4 -4 -4 -4 -4 -4 -5 -5 -5 -5 -5 -5 -5 -6 -6 -5 -6 -6 -6 -6 -6 -6 -6 -6 -6 -6 -6 -6 -5 -5 -5 -5 -5 -5 -5 -6 -6 -6 -6 -5 -5 -5 -5 -4 -4 -4 -4 -4 -3 -3 -3
-3 -3 -3 -3 -3 -3 -3 -3 -3 -3 -3 -3 -3 -3 -3 -3 -3 -3 -3 -3 -3 -3 -4 -4 -4 -4 -4 -4 -4 -4 -4 -4 -4 -4 -4 -4 -4 -4 -4 -4 -4 -5 -5 -5 -5 -5 -5 -5 -5 -5 -5 -6 -6 -6 -6 -6 -6 -6 -6 -6 -7 -7 -6 -6 -5 -5 -5 -5 -6 -6 -6 -6 -6 -6 -5 -5 -5 -5 -5 -4 -4 -4 -4 -3 -3 -3
-3 -3 -3 -3 -3 -3 -3 -3 -3 -3 -3 -3 -3 -3 -4 -4 -4 -4 -4 -4 -4 -4 -4 -4 -4 -4 -4 -4 -4 -4 -4 -4 -4 -4 -4 -4 -4 -4 -4 -4 -5 -5 -5 -5 -5 -5 -5 -6 -5 -5 -5 -6 -6 -6 -6 -6 -6 -6 -6 -6 -7 -7 -7 -6 -6 -5 -5 -5 -5 -5 -6 -6 -6 -6 -5 -5 -5 -5 -5 -4 -4 -4 -4 -3 -3 -3
-3 -3 -3 -3 -3 -3 -3 -3 -3 -4 -4 -4 -4 -4 -4 -4 -4 -4 -4 -4 -4 -4 -4 -4 -4 -4 -4 -4 -4 -4 -4 -4 -4 -4 -4 -4 -4 -4 -4 -5 -5 -5 -5 -5 -5 -6 -6 -6 -6 -6 -6 -6 -7 -7 -6 -6 -6 -6 -6 -6 -7 -7 -7 -7 -6 -6 -6 -5 -5 -5 -6 -6 -6 -6 -6 -5 -5 -5 -4 -4 -4 -4 -4 -4 -3 -3
-3 -3 -3 -3 -3 -3 -3 -3 -4 -4 -4 -4 -4 -4 -4 -4 -4 -4 -4 -4 -4 -4 -4 -4 -4 -4 -4 -4 -4 -4 -4 -4 -4 -4 -4 -4 -5 -5 -5 -5 -5 -5 -5 -5 -6 -6 -6 -6 -6 -6 -6 -6 -6 -6 -6 -6 -6 -6 -6 -6 -7 -7 -7 -7 -7 -6 -6 -6 -6 -6 -6 -6 -6 -6 -6 -6 -6 -5 -5 -4 -4 -4 -4 -4 -4 -3
-3 -3 -3 -3 -3 -3 -3 -4 -4 -4 -4 -4 -4 -4 -4 -4 -4 -4 -4 -4 -4 -4 -4 -5 -5 -5 -5 -4 -4 -4 -4 -4 -4 -4 -4 -5 -5 -5 -5 -5 -5 -6 -6 -6 -6 -6 -6 -6 -6 -6 -6 -6 -6 -6 -6 -6 -6 -6 -6 -6 -7 -7 -7 -7 -7 -6 -6 -6 -6 -6 -7 -7 -7 -7 -7 -7 -6 -6 -5 -4 -4 -4 -4 -4 -4 -4
-2 -2 -3 -3 -3 -3 -3 -3 -3 -4 -4 -4 -4 -4 -4 -4 -4 -4 -4 -4 -4 -4 -5 -5 -5 -5 -5 -5 -4 -4 -4 -5 -5 -5 -5 -5 -5 -5 -5 -5 -6 -6 -6 -6 -6 -6 -6 -7 -7 -6 -6 -6 -6 -6 -6 -6 -6 -6 -6 -6 -7 -7 -7 -7 -7 -7 -6 -6 -6 -7 -7 -7 -7 -7 -7 -7 -7 -7 -6 -5 -4 -4 -4 -4 -4 -4
-2 -2 -2 -2 -3 -3 -3 -3 -3 -3 -3 -3 -4 -4 -4 -4 -4 -4 -4 -4 -5 -5 -5 -5 -5 -5 -5 -5 -4 -4 -5 -5 -5 -5 -5 -5 -5 -5 -5 -6 -6 -6 -6 -6 -7 -7 -7 -7 -6 -6 -6 -6 -6 -6 -6 -6 -6 -6 -6 -7 -7 -7 -7 -7 -7 -7 -7 -7 -7 -7 -7 -7 -7 -8 -8 -8 -7 -7 -7 -6 -5 -4 -4 -4 -4 -4
-2 -2 -2 -2 -2 -2 -3 -3 -3 -3 -3 -3 -3 -3 -4 -4 -4 -4 -4 -5 -5 -5 -5 -5 -5 -5 -5 -5 -4 -4 -5 -5 -5 -5 -5 -5 -5 -5 -5 -6 -6 -6 -6 -7 -7 -7 -7 -6 -6 -6 -5 -5 -5 -5 -6 -6 -7 -7 -7 -7 -7 -7 -7 -7 -7 -7 -7 -7 -7 -7 -7 -7 -7 -7 -7 -8 -7 -7 -7 -7 -6 -4 -4 -4 -4 -4
Height
800 800 801 802 803 804 805 806 806 807 808 808 809 810 811 812 813 813 814 815 815 816 817 817 818 818 819 819 819 820 820 820 821 821 821 822 822 822 822 822 823 823 823 823 823 823 824 824 824 825 825 826 826 826 827 827 827 827 828 828 828 828 828 828 828 828 828 828 828 827 827 827 827 827 828 828 828 828 829 829 829 829 829 829 830 830
799 800 801 802 803 803 804 805 805 806 806 807 808 809 810 811 812 813 813 814 814 815 816 817 817 818 818 818 819 819 819 820 820 821 821 821 821 822 822 822 822 822 822 822 823 823 823 824 824 825 825 825 826 826 826 826 826 827 827 827 827 827 827 827 827 827 827 827 827 826 826 826 826 827 827 827 828 828 828 828 828 828 829 829 829 830
798 799 800 801 802 803 803 804 804 805 806 806 807 808 809 810 811 811 812 813 813 814 815 816 816 817 818 818 818 819 819 819 820 820 820 821 821 821 821 821 822 822 822 822 822 823 823 823 824 824 825 825 825 826 826 826 826 826 826 827 827 827 827 827 826 826 826 826 826 826 825 826 826 826 826 827 827 827 827 828 828 828 828 828 829 829
797 798 799 800 801 802 802 803 803 804 805 806 807 808 808 809 810 810 811 812 812 813 813 814 816 816 817 817 818 818 818 819 819 819 820 820 820 820 821 821 821 821 822 822 822 823 823 823 824 824 824 825 825 825 825 826 826 826 826 826 826 826 826 826 826 825 825 825 825 825 825 825 825 825 826 826 826 826 827 827 827 827 827 828 828 828
796 797 797 798 799 800 801 801 802 803 804 805 806 807 808 808 809 809 810 810 811 812 813 813 814 815 816 817 817 818 818 818 819 819 819 819 820 820 820 821 821 821 821 822 822 822 823 823 823 824 824 824 825 825 825 825 825 825 825 825 825 825 825 825 825 825 825 824 824 824 824 824 825 825 825 825 825 826 826 826 826 827 827 827 828 828
795 795 796 797 798 798 799 800 801 803 804 805 806 806 807 808 808 808 809 809 810 811 812 813 813 814 815 816 817 818 818 818 818 819 819 819 819 820 820 820 821 821 821 822 822 822 823 823 823 823 824 824 824 824 825 825 825 825 825 825 825 824 824 824 824 824 824 824 824 824 824 824 824 824 824 824 824 825 825 825 825 826 826 827 827 827
793 794 795 796 797 798 798 800 801 802 803 804 805 805 806 807 807 808 808 809 809 810 811 812 813 814 814 815 816 817 818 818 818 818 819 819 819 820 820 820 821 821 821 821 822 822 822 823 823 823 823 824 824 824 824 824 824 824 824 824 824 824 824 823 823 823 823 823 823 823 823 823 823 823 823 823 823 824 824 824 825 825 825 826 826 827
792 793 794 795 796 797 798 799 800 801 802 803 803 804 805 806 806 807 808 808 809 810 810 811 812 813 814 815 816 816 817 817 818 818 818 819 819 820 820 820 820 821 821 821 821 822 822 822 823 823 823 823 823 824 824 824 824 823 823 823 823 823 823 823 823 823 822 822 822 822 822 822 822 822 823 823 823 823 823 823 824 824 825 825 826 826
791 793 794 794 795 796 798 798 799 800 801 801 802 803 804 805 805 806 807 808 808 809 810 811 812 813 813 814 815 816 816 817 817 818 818 818 819 819 819 820 820 820 820 821 821 821 821 822 822 822 823 823 823 823 823 823 823 823 823 823 823 823 823 822 822 822 822 822 822 822 822 822 822 822 822 822 822 822 822 823 823 823 824 824 825 825
790 792 793 794 794 795 796 797 798 799 800 801 802 802 803 803 804 805 807 807 808 809 810 810 811 812 813 814 815 815 816 816 817 817 817 818 818 818 818 819 819 820 820 820 820 821 821 821 822 822 822 822 823 823 823 823 823 823 823 823 822 822 822 822 822 822 821 821 821 821 821 821 821 821 821 821 822 822 822 822 822 823 823 823 824 824
790 791 792 793 794 794 795 795 797 798 799 800 801 802 802 803 803 804 805 806 807 808 809 810 811 811 812 813 814 814 815 815 816 816 817 817 818 818 818 818 819 819 819 820 820 820 820 821 821 822 822 822 822 822 822 822 822 822 822 822 822 822 822 821 821 821 821 821 821 821 821 821 821 821 821 821 821 821 821 821 822 822 822 823 823 823
789 790 792 792 793 793 794 795 796 797 798 800 801 802 802 802 802 803 804 805 806 807 808 809 810 811 812 813 813 814 814 815 815 816 816 817 817 818 818 818 818 818 819 819 819 819 820 820 820 821 821 821 821 821 821 821 822 822 822 821 821 821 821 821 821 821 820 820 820 820 820 820 820 820 820 821 821 821 821 821 821 821 822 822 822 823
788 789 790 791 792 793 793 794 796 797 798 798 799 799 800 800 801 802 803 803 805 806 807 808 809 811 811 812 813 813 814 814 815 815 816 816 817 817 817 817 818 818 818 818 819 819 819 819 820 820 820 820 821 820 821 821 821 821 821 821 821 820 820 820 820 820 820 820 820 820 820 820 820 820 820 820 820 821 821 821 821 821 821 821 822 822
788 788 790 791 792 792 793 793 794 795 796 796 796 796 797 798 799 801 802 803 804 805 807 808 809 810 811 812 812 813 813 813 814 814 815 815 816 816 816 817 817 817 818 818 818 818 818 819 819 819 819 820 820 820 820 820 820 820 820 820 820 820 820 820 820 820 819 819 819 819 819 819 819 819 820 820 820 820 820 820 821 821 821 821 821 822
787 788 789 790 791 791 792 792 793 793 793 793 794 795 796 797 799 800 801 803 804 805 807 808 809 810 810 811 812 812 813 813 813 814 814 815 815 815 816 816 816 816 817 817 817 817 818 818 818 818 818 819 819 819 819 819 819 819 819 819 819 819 819 819 819 819 819 819 819 819 819 819 819 819 819 819 820 820 820 820 820 820 820 821 821 821
785 786 787 788 789 789 790 790 791 791 792 792 793 794 796 797 798 799 801 802 803 805 806 808 809 810 810 810 811 811 812 812 812 813 813 814 814 814 815 815 815 815 816 816 816 816 817 817 817 817 818 818 818 818 818 818 818 818 818 819 819 819 819 819 819 819 818 818 818 818 818 818 818 819 819 819 819 819 819 820 820 820 820 820 820 821
784 785 785 786 787 788 788 788 789 790 790 791 792 793 794 796 797 798 799 800 802 804 805 807 808 809 809 809 810 810 810 811 812 812 813 813 813 813 814 814 814 814 815 815 815 815 816 816 816 816 817 817 817 817 817 818 818 818 818 818 818 818 818 818 818 818 818 818 818 818 818 818 818 818 818 818 819 819 819 819 819 819 820 820 820 820
783 783 784 785 785 786 786 787 788 788 789 790 791 792 793 795 796 797 798 799 801 803 804 805 805 806 807 808 808 808 809 810 811 811 812 812 812 813 813 813 813 813 814 814 814 814 815 815 815 815 816 816 816 816 817 817 817 817 818 818 818 818 818 818 818 818 818 818 818 818 818 818 818 818 818 818 818 818 818 818 819 819 819 819 820 820
782 782 783 783 784 784 785 785 786 787 788 789 790 792 793 794 795 797 798 798 800 801 802 803 804 804 805 806 806 806 808 809 809 810 811 811 811 812 812 812 812 813 813 813 813 813 814 814 814 814 815 815 815 816 816 816 817 817 817 817 817 817 817 817 817 817 817 817 817 817 817 817 817 817 817 818 818 818 818 818 818 819 819 819 819 819
781 781 782 782 783 783 784 784 785 785 786 788 789 791 792 793 795 796 797 798 799 800 801 802 803 803 804 804 805 806 807 808 809 809 810 810 810 811 811 811 811 812 812 812 812 813 813 813 813 814 814 814 815 815 815 816 816 816 816 817 817 817 817 817 817 817 817 817 817 817 817 817 817 817 817 817 817 818 818 818 818 818 819 819 819 819
780 780 780 781 782 782 783 783 783 784 785 787 788 790 791 792 794 795 796 797 798 799 800 801 802 803 803 804 804 805 806 807 808 808 809 809 810 810 810 810 810 811 811 811 811 812 812 813 813 813 813 814 814 814 815 815 815 815 816 816 816 816 816 816 816 816 816 816 816 816 817 817 817 817 817 817 817 817 817 818 818 818 818 818 818 818
779 779 779 780 781 781 782 782 783 784 785 786 787 788 790 791 793 794 795 796 797 798 800 801 801 802 803 803 804 805 806 806 807 808 808 809 809 808 809 809 809 810 810 810 811 811 812 812 812 813 813 813 813 814 814 814 814 815 815 815 815 816 816 816 816 816 816 816 816 816 816 816 816 816 816 816 817 817 817 817 817 817 817 818 818 818
778 778 779 779 780 780 781 782 782 783 784 785 786 788 789 790 791 793 793 795 796 798 799 800 801 802 802 803 804 804 805 806 806 807 808 808 808 808 808 808 808 809 809 810 810 811 811 811 812 812 812 813 813 813 813 813 814 814 814 815 815 815 815 815 815 816 816 816 816 816 816 816 816 816 816 816 816 816 816 816 816 817 817 817 817 817
778 778 778 778 779 780 781 781 782 783 783 785 786 788 789 790 791 792 793 794 796 797 798 799 800 801 802 803 803 804 804 805 805 806 807 807 807 807 807 808 808 808 809 809 810 810 810 811 811 812 812 812 812 812 813 813 813 813 813 814 814 815 815 815 815 815 815 815 815 816 816 816 816 816 816 816 816 816 816 816 816 816 816 816 816 817
777 777 777 778 778 779 780 781 781 782 783 784 786 787 788 790 791 792 793 794 795 797 798 799 800 801 801 802 803 803 803 804 805 805 806 806 806 807 807 807 808 808 808 809 809 810 810 810 811 811 811 811 812 812 812 812 812 813 813 813 814 814 814 815 815 815 815 815 815 815 815 815 815 815 815 815 815 815 815 815 815 816 816 816 816 816
777 777 777 778 778 779 779 780 781 782 783 784 785 786 788 789 790 792 793 794 795 796 797 798 799 800 800 801 802 802 803 803 804 804 805 805 806 806 806 807 807 808 808 808 809 809 809 810 810 810 810 811 811 811 811 812 812 812 813 813 813 814 814 814 814 814 814 815 815 815 815 815 815 815 815 815 815 815 815 815 815 815 815 815 815 815
776 777 777 777 778 778 779 780 781 782 783 784 785 786 787 788 789 791 792 793 794 795 796 797 798 799 800 800 801 801 802 802 803 803 804 805 805 805 806 806 807 807 807 808 808 808 809 809 809 809 810 810 810 810 811 811 812 812 813 813 813 813 813 813 813 814 814 814 814 814 814 814 814 814 815 815 815 815 815 815 815 815 815 815 815 815
776 776 777 777 778 778 779 780 780 781 783 783 785 786 787 788 788 789 790 791 793 794 795 796 797 798 799 799 800 800 801 801 802 803 803 804 804 805 805 805 806 806 807 807 808 808 808 808 808 808 809 809 809 810 810 810 811 812 812 812 812 812 813 813 813 813 813 813 813 813 814 814 814 814 814 814 814 814 814 814 814 814 814 814 815 814
776 776 777 777 778 778 779 780 780 781 783 783 785 786 787 788 788 788 789 791 792 793 794 795 796 797 798 798 799 799 800 800 801 802 803 803 803 804 804 805 805 806 806 807 807 807 807 807 808 808 808 808 809 809 810 810 810 810 811 811 811 812 812 812 812 812 813 813 813 813 813 813 813 813 813 813 813 813 814 814 814 814 814 814 814 814
775 776 776 777 778 778 779 779 780 782 783 783 785 786 787 788 788 788 789 790 791 792 793 794 795 796 796 798 798 799 799 799 800 801 801 802 803 803 803 804 804 805 805 806 806 807 807 807 807 807 807 808 808 808 809 809 810 810 810 810 811 811 811 811 811 812 812 812 812 812 812 812 812 812 813 813 813 813 813 813 813 813 813 813 813 813
775 776 776 777 777 778 778 779 780 781 782 783 784 785 786 787 788 788 789 790 791 791 792 793 794 795 795 796 798 798 798 798 799 800 800 801 802 802 803 803 804 804 805 805 805 805 806 806 806 807 807 807 808 808 808 809 809 809 810 810 810 810 810 811 811 811 811 811 811 811 811 811 811 811 811 812 812 812 812 813 813 813 813 813 813 812
775 776 776 777 777 778 778 779 780 781 782 783 784 785 786 786 787 788 789 789 790 791 792 792 793 794 794 795 796 796 796 797 798 798 799 800 801 802 802 803 803 803 804 804 804 804 805 805 806 806 807 807 807 808 808 808 808 809 809 809 810 810 810 810 810 810 810 810 810 810 810 810 810 810 810 810 810 811 811 811 812 812 812 812 812 812
775 776 776 777 778 778 778 779 780 781 782 783 783 784 785 786 787 788 788 789 790 791 791 792 793 793 794 794 795 795 796 796 797 798 798 799 800 801 801 802 802 803 803 804 804 804 804 805 805 806 806 806 807 807 808 808 808 808 808 809 809 809 809 809 809 809 809 809 809 808 808 809 809 809 809 809 809 809 810 810 811 811 811 811 811 811
775 776 776 777 778 778 779 779 780 781 782 783 783 784 785 786 787 787 788 789 789 790 791 792 792 793 793 794 794 795 795 796 797 797 798 798 799 800 800 801 802 802 803 803 803 804 804 804 805 805 806 806 806 807 807 807 807 808 808 808 808 808 808 808 808 808 808 808 808 808 808 808 808 808 808 808 808 808 809 809 809 810 810 810 810 810
775 776 776 777 778 778 779 780 780 781 782 783 783 784 785 785 786 787 788 788 789 790 791 791 792 792 793 793 794 794 795 795 796 797 797 798 798 799 800 800 801 801 802 802 803 803 804 804 804 805 805 805 806 806 806 806 807 807 807 807 807 807 807 807 807 807 807 807 807 806 806 806 806 806 807 807 807 807 808 808 808 808 809 809 809 809
775 776 776 777 777 778 779 779 780 781 782 782 783 783 784 785 786 787 787 788 789 789 790 791 791 792 792 793 793 793 794 794 795 796 796 797 798 798 799 799 800 800 801 801 802 802 803 803 804 804 804 805 805 805 805 805 806 806 806 806 806 806 806 806 806 806 806 806 805 805 805 805 805 805 805 806 806 806 806 806 807 807 807 808 808 808
775 775 776 777 777 778 778 779 780 780 781 782 782 783 784 784 785 786 787 788 788 789 790 790 791 791 792 792 793 793 793 794 795 795 796 796 797 798 798 798 799 799 800 800 801 801 802 803 803 803 804 804 804 804 804 804 805 805 805 805 805 805 805 805 805 805 804 804 804 804 804 804 804 804 804 804 804 804 805 805 805 806 806 806 806 807
774 775 775 776 777 777 778 778 779 780 780 781 782 783 783 784 785 786 786 787 788 788 789 790 790 791 791 792 792 793 793 794 794 795 795 796 796 797 797 798 798 798 799 799 800 800 801 802 802 803 803 803 803 803 803 803 804 804 804 804 803 803 803 803 803 803 803 803 803 803 803 803 803 803 803 803 803 803 804 804 804 804 805 805 805 805
773 774 775 775 776 777 777 778 778 779 780 781 781 782 783 783 784 785 786 787 787 788 788 789 790 790 791 791 792 792 793 793 794 794 794 795 795 796 797 797 797 798 798 799 799 800 800 801 801 802 802 802 802 802 802 803 803 803 803 803 802 802 802 802 802 802 802 802 802 801 801 801 802 802 802 802 802 803 803 803 803 803 804 804 804 804
773 773 773 774 775 776 777 777 778 778 779 780 781 782 782 783 784 784 785 786 787 787 788 788 789 790 790 791 791 792 792 793 793 793 794 794 795 795 796 796 797 797 798 798 798 799 799 800 800 801 801 801 801 801 802 802 802 802 802 802 801 801 801 801 800 800 800 800 800 800 800 800 800 801 801 801 801 801 802 802 802 802 803 803 803 803
772 772 773 773 774 775 776 776 777 778 778 779 780 781 782 782 783 784 784 785 786 787 787 788 788 789 790 790 791 791 792 792 793 793 793 794 794 794 795 795 796 796 797 797 798 798 798 799 799 800 800 800 800 801 800 800 800 800 801 801 800 799 799 799 799 799 798 798 798 799 799 799 799 800 800 800 800 800 800 801 801 801 801 802 802 802
771 771 772 773 773 774 775 776 777 777 778 778 779 780 781 781 782 783 783 784 785 786 787 787 788 788 789 790 790 791 791 792 792 792 793 793 793 794 794 794 795 795 796 796 797 797 798 798 798 799 799 799 800 800 799 799 799 799 799 799 799 798 798 798 798 797 797 797 797 798 798 798 798 799 799 799 799 799 799 800 800 800 800 800 800 801
770 770 771 772 773 773 774 775 776 777 777 778 778 779 780 781 781 782 783 783 784 785 786 787 787 788 788 789 790 790 791 791 791 792 792 792 793 793 793 793 794 794 795 795 796 796 797 797 797 798 798 798 798 799 798 798 798 798 798 798 798 798 798 797 797 797 797 797 797 797 797 798 798 798 798 798 798 798 798 798 798 799 799 799 799 799
769 770 771 771 772 773 774 774 775 776 777 777 778 778 779 780 781 781 782 783 784 784 785 786 787 787 788 788 789 789 790 790 791 791 791 791 792 792 792 793 793 793 794 794 795 795 796 796 796 797 797 797 798 798 797 797 797 797 797 797 797 797 797 796 796 796 796 796 796 797 797 797 797 797 797 797 797 797 797 797 797 798 798 798 798 798
768 769 770 771 772 772 773 774 774 775 776 777 777 778 779 779 780 781 782 783 783 784 785 785 786 787 788 788 788 789 789 789 790 790 790 790 791 791 791 792 792 792 793 793 794 794 795 795 795 796 796 796 796 796 796 796 796 796 796 795 795 795 795 795 795 795 795 795 796 796 796 796 796 795 795 796 796 796 796 796 796 796 796 796 796 797
768 768 769 770 771 772 772 773 774 775 775 776 777 778 778 779 780 781 781 782 783 783 784 785 785 786 787 787 787 788 788 788 788 789 789 789 790 790 790 791 791 791 792 792 793 793 793 794 794 795 795 795 795 795 795 795 795 795 794 794 794 794 794 793 793 794 794 794 794 794 794 794 794 794 794 794 794 794 794 795 795 795 795 795 795 795
767 768 768 769 770 771 772 773 773 774 775 776 776 777 778 778 779 780 781 781 782 783 783 784 785 785 785 786 786 787 787 787 788 788 788 788 788 789 789 790 790 790 791 791 792 792 792 793 793 793 794 794 794 794 793 793 794 794 793 793 793 793 793 793 792 793 793 793 793 793 793 793 793 793 793 793 793 793 793 793 794 794 794 794 794 794
766 766 767 768 769 770 771 772 773 773 774 775 776 776 777 778 778 779 780 781 782 782 783 783 784 784 784 785 785 786 786 786 787 787 787 788 788 788 788 789 789 790 790 790 791 791 791 791 792 792 792 793 793 793 792 792 793 793 793 793 793 792 792 792 791 791 792 792 792 792 792 792 792 792 792 792 792 792 792 792 793 793 793 793 793 793
765 766 766 767 768 769 770 771 771 772 773 774 775 776 776 777 778 778 779 780 781 781 782 782 783 783 783 784 784 785 785 785 786 786 786 787 787 787 788 788 788 789 789 789 790 790 790 790 790 790 790 791 791 791 791 791 791 791 792 792 792 791 791 791 790 790 790 790 791 791 791 791 791 791 791 791 791 791 791 791 791 792 792 792 791 791
764 764 765 766 767 768 768 769 770 771 772 773 774 774 775 776 777 778 778 779 780 780 781 781 782 782 782 783 783 783 784 784 785 785 785 786 786 786 787 787 788 788 788 789 789 789 789 789 789 788 788 789 789 789 790 790 790 790 790 790 790 790 790 790 790 789 789 789 789 790 790 790 790 790 790 790 790 790 789 789 790 790 791 790 790 790
763 763 764 765 766 767 768 768 769 770 771 772 773 773 774 775 776 777 777 778 778 779 779 780 780 781 781 782 782 783 783 783 783 784 784 784 785 785 786 786 787 787 788 788 788 788 788 788 788 787 787 787 787 788 788 788 789 789 789 789 789 789 789 789 789 789 789 789 789 789 789 789 789 789 789 790 789 789 789 788 788 789 789 789 789 789
Wind_Speed
16 16 17 18 20 22 23 25 25 25 24 24 22 21 19 18 17 16 15 15 15 15 15 14 13 12 12 12 11 11 11 10 9 8 8 7 7 6 5 5 4 3 3 2 2 3 4 5 6 7 7 8 8 8 9 9 9 9 10 9 8 8 8 7 7 6 5 5 4 4 4 4 4 4 4 4 5 4 4 4 4 4 4 4 4 4
15 15 15 17 19 22 23 24 25 25 25 24 23 21 19 18 17 17 16 16 15 15 14 14 13 13 12 12 11 10 10 10 9 8 8 7 6 6 5 4 4 3 3 3 3 4 5 6 6 7 8 8 9 9 9 9 9 10 10 9 9 8 8 7 7 6 6 5 5 4 5 5 5 5 5 4 4 4 4 4 4 4 4 4 3 3
15 15 16 17 20 22 22 23 24 25 24 24 22 20 19 18 18 17 17 16 16 15 15 14 14 13 12 12 10 9 9 9 8 7 7 6 6 6 6 5 4 4 4 4 5 6 6 7 7 7 7 7 8 8 8 8 9 9 9 8 8 8 7 7 6 6 6 5 5 5 5 6 6 6 6 5 5 4 4 4 4 5 5 4 4 3
16 16 17 19 20 22 22 23 24 24 23 22 21 20 18 18 17 17 16 16 15 15 14 14 14 14 13 12 10 9 8 8 8 7 7 7 7 6 6 5 5 5 6 6 6 7 7 7 7 6 6 6 6 6 7 7 7 7 7 7 7 7 7 6 6 6 6 6 6 6 6 6 6 7 7 7 6 6 5 5 5 5 5 5 4 3
16 18 19 20 21 22 22 23 24 23 22 20 19 18 18 17 16 16 15 15 14 13 13 13 14 14 13 12 10 9 7 7 7 7 7 7 7 6 6 6 7 7 7 7 7 7 7 7 6 6 6 5 5 5 5 5 5 6 6 6 6 6 6 6 6 6 6 7 7 7 7 7 7 7 8 8 8 7 7 6 6 6 5 5 5 4
15 18 20 21 22 22 22 22 22 22 20 19 18 17 16 16 15 14 14 13 12 12 11 12 13 13 13 12 11 10 7 7 7 7 7 7 7 7 7 7 8 7 7 7 7 7 6 6 6 6 5 5 4 4 3 3 4 4 4 4 4 5 5 5 5 5 6 6 7 7 7 7 8 8 8 8 8 8 7 7 6 5 5 5 5 4
16 19 21 22 23 23 22 21 22 21 20 19 18 17 15 14 14 13 12 12 11 10 10 11 12 12 12 12 12 12 10 9 8 8 8 8 8 8 8 8 8 8 7 7 6 6 6 5 5 5 5 4 4 3 3 3 3 3 3 4 4 4 4 4 4 5 5 6 6 6 6 7 7 7 7 8 7 7 7 6 6 5 4 4 4 4
16 19 21 22 21 21 22 22 22 22 21 20 18 17 15 14 13 13 12 11 11 10 11 12 12 12 12 13 14 14 13 11 11 11 11 10 10 9 9 9 9 8 7 7 6 6 5 5 5 5 4 4 4 4 4 4 4 4 4 4 4 4 4 5 5 5 6 6 6 6 6 6 5 5 6 6 6 6 6 6 5 4 4 4 4 4
16 17 19 20 19 19 20 21 22 22 21 20 19 18 17 16 15 14 13 12 11 11 12 13 13 13 13 14 15 15 14 12 12 12 12 13 12 11 10 10 9 8 7 7 6 5 5 4 4 4 4 4 4 5 5 5 5 5 5 5 5 5 6 6 6 6 6 6 6 5 5 4 4 3 3 4 4 4 5 5 4 4 4 4 4 4
17 17 18 19 20 20 18 21 22 22 21 19 18 17 17 17 17 16 15 14 13 13 13 14 14 15 15 15 16 15 15 13 12 12 13 13 12 12 11 10 9 8 7 6 5 5 4 4 4 3 4 4 5 6 6 6 6 6 6 6 6 7 7 7 6 6 6 5 5 4 3 3 2 2 2 3 3 3 3 3 3 4 4 4 4 4
15 16 17 18 20 21 20 22 23 22 20 19 17 17 16 17 17 16 15 15 15 15 15 15 15 16 17 17 16 16 15 14 13 13 12 12 11 10 9 9 8 7 7 6 5 5 5 4 4 4 5 5 6 7 7 7 6 6 6 7 7 7 7 6 6 5 5 4 4 3 3 2 2 2 2 2 2 2 2 2 2 3 3 3 3 3
14 15 15 16 18 19 20 22 23 23 20 18 15 14 15 17 18 16 14 15 17 18 17 17 17 17 17 17 17 16 15 14 13 13 12 11 10 9 9 8 7 7 6 6 5 5 5 5 5 6 6 7 7 8 8 8 7 8 8 8 8 7 6 5 5 4 4 3 3 3 2 2 2 2 2 2 2 1 1 1 2 2 3 3 2 2
14 15 15 16 17 18 19 19 20 21 20 18 15 13 14 17 19 18 15 16 18 19 19 18 18 17 17 17 17 16 15 14 13 12 12 11 10 9 9 8 7 7 6 6 6 6 6 6 7 7 8 8 8 9 9 9 9 9 9 8 7 6 5 4 4 4 3 3 3 3 3 2 2 2 2 2 2 1 1 1 1 2 2 2 2 2
14 14 14 13 14 16 18 18 19 18 17 17 17 17 18 20 19 18 16 17 18 19 19 19 18 18 17 16 16 15 15 14 13 12 12 11 10 10 9 8 8 7 7 6 7 7 7 7 8 8 9 9 10 10 10 10 10 10 9 8 6 4 3 3 3 4 4 4 3 3 2 2 2 2 2 2 2 1 1 1 2 2 2 2 2 2
14 13 12 11 12 14 17 18 19 18 18 20 21 21 20 19 19 18 16 16 18 18 18 18 17 17 16 16 16 15 15 14 14 13 12 11 11 10 10 9 9 8 8 8 8 8 8 8 8 9 9 10 10 11 11 11 10 9 7 5 3 3 3 4 4 4 4 4 3 3 2 2 1 2 2 2 2 2 2 2 2 2 2 2 2 2
14 14 12 12 12 15 18 19 19 18 19 21 22 21 18 18 19 18 16 17 18 19 17 14 13 13 14 16 17 16 15 15 14 14 13 12 12 11 11 10 10 9 9 9 9 9 9 9 9 9 9 10 10 10 10 10 9 7 5 3 3 3 4 4 4 4 4 4 3 2 2 2 2 2 2 2 2 2 3 3 2 2 2 2 2 2
14 14 13 13 13 15 19 21 20 19 20 22 22 21 19 19 19 19 18 18 18 18 16 13 9 7 8 12 15 17 17 16 15 14 14 13 12 12 11 11 10 10 10 9 9 10 10 9 9 9 10 10 10 9 9 8 7 5 3 3 3 4 4 4 4 4 4 3 3 2 2 2 2 3 3 3 3 3 3 3 3 3 2 2 2 2
15 15 14 13 13 15 20 23 23 22 22 22 22 22 20 19 19 19 19 19 18 17 15 14 11 7 6 6 11 16 18 17 16 15 14 14 13 13 12 11 11 11 10 10 10 10 10 10 9 9 9 9 9 8 8 7 5 4 4 4 4 4 4 4 4 4 3 3 3 2 2 2 3 3 4 4 4 3 3 3 3 3 2 1 1 2
16 18 16 15 15 17 21 23 23 23 22 22 22 21 20 19 19 19 19 20 19 18 17 15 14 12 8 5 8 14 16 17 16 15 14 13 13 13 12 12 11 11 10 10 10 10 10 9 9 8 8 8 7 7 6 6 5 5 4 4 4 4 4 4 4 4 4 3 3 3 2 2 2 3 3 4 3 3 2 2 2 1 1 1 2 2
18 19 19 18 17 18 20 22 24 24 23 23 22 21 21 20 20 20 20 20 20 19 19 17 15 13 10 7 7 10 13 14 14 14 13 12 12 12 12 11 10 10 10 10 10 10 9 8 8 7 7 7 6 6 6 6 5 5 5 4 4 4 4 4 4 4 4 4 3 3 3 2 2 2 2 3 3 2 2 2 1 1 2 2 3 3
18 19 20 19 18 17 17 20 23 23 24 23 23 22 21 20 20 20 20 20 20 19 18 16 15 14 11 9 8 8 9 11 12 12 11 11 11 11 11 10 10 9 9 9 9 9 8 7 7 6 6 6 6 6 6 6 6 6 5 5 4 4 4 4 4 4 3 3 2 3 3 3 3 3 3 3 3 3 3 3 3 3 3 3 4 4
15 16 16 16 16 16 15 16 18 20 21 22 22 22 21 20 19 20 21 21 20 19 18 16 15 13 11 10 9 8 8 8 9 10 8 8 8 9 9 9 8 8 8 8 8 8 7 6 6 6 6 6 6 6 6 6 6 6 6 5 5 5 5 5 4 4 3 3 3 3 3 3 3 3 3 3 4 4 4 4 4 4 4 4 4 4
9 9 10 12 13 13 12 12 13 16 19 20 21 20 19 19 19 20 22 21 20 19 18 16 14 13 12 10 9 9 8 8 8 8 7 6 6 7 7 6 6 7 8 9 8 7 7 6 6 6 6 6 6 6 6 6 6 6 6 5 5 5 5 5 5 4 4 3 3 3 3 3 3 3 3 3 3 4 4 5 5 5 5 5 5 5
6 6 7 9 10 10 9 9 11 13 16 17 18 17 17 17 17 17 18 18 18 18 17 15 13 11 10 10 10 9 9 8 8 7 7 6 6 6 5 5 6 8 9 9 8 7 7 6 6 6 6 6 6 6 6 6 7 6 6 5 5 6 6 6 5 4 4 3 3 3 3 4 4 4 4 4 4 4 4 4 5 5 5 5 6 6
7 7 8 8 9 9 8 8 9 11 13 15 16 16 15 15 14 14 14 15 16 17 16 14 12 10 9 9 10 10 10 9 8 8 7 6 6 6 6 6 7 8 9 9 8 7 7 7 6 6 6 6 6 6 6 6 6 6 6 6 6 6 6 6 5 5 4 4 4 4 4 5 5 5 5 5 5 5 4 4 5 5 5 5 6 6
7 7 9 9 9 9 9 9 9 10 11 13 14 15 15 15 15 14 15 16 17 16 15 13 11 10 10 9 10 10 10 10 9 8 8 7 6 6 7 7 8 9 9 9 9 8 8 7 7 7 7 6 6 6 6 6 6 6 6 7 7 7 7 7 7 6 6 5 5 4 4 5 5 6 6 6 6 5 5 5 5 5 5 5 5 6
7 8 9 9 10 10 10 10 10 10 11 12 13 14 15 15 16 16 16 17 17 17 16 12 9 8 10 9 9 10 11 10 9 9 8 7 6 6 7 8 8 9 9 9 9 8 8 8 8 8 7 7 7 7 7 7 7 6 7 7 8 8 8 8 8 8 7 6 5 5 4 5 5 6 6 6 6 6 6 6 6 6 6 6 6 6
8 8 9 9 10 10 10 11 11 11 12 12 13 13 14 15 16 17 18 18 18 17 16 13 9 7 8 8 9 10 10 10 9 9 9 8 6 6 8 8 8 8 8 8 8 8 8 8 8 8 8 8 8 8 9 10 10 9 9 9 9 9 9 9 9 8 7 6 5 5 4 4 5 5 6 6 6 6 6 6 6 6 6 6 7 7
10 10 10 10 10 10 11 11 12 12 13 13 13 13 14 14 15 16 17 17 17 17 16 14 11 8 7 8 9 9 9 10 10 10 10 9 7 6 8 8 8 8 7 7 6 7 7 8 8 8 8 8 8 10 11 12 12 12 12 11 10 10 10 10 9 8 7 7 6 6 5 5 5 5 5 6 6 6 6 6 6 6 6 6 7 8
11 12 12 12 12 12 12 12 13 13 13 14 14 14 13 12 12 12 13 14 15 16 16 15 13 10 7 6 6 6 8 10 11 11 11 9 8 7 8 8 7 7 6 5 4 4 5 6 6 7 7 8 10 11 13 13 13 13 13 12 11 11 10 10 9 9 8 8 8 7 7 7 6 6 6 6 6 7 7 6 6 6 7 8 8 8
12 12 13 13 13 13 14 15 15 15 14 15 15 14 13 12 11 10 10 11 13 14 14 14 14 13 10 7 4 2 4 9 12 12 11 11 9 7 8 7 7 7 6 5 4 3 1 3 4 6 7 9 10 12 14 14 14 13 13 12 11 11 10 10 10 10 10 10 10 9 8 8 9 9 8 8 8 8 8 8 7 7 8 9 9 9
12 12 13 13 13 14 15 16 17 16 16 15 15 14 13 12 11 10 10 10 10 10 11 12 13 13 12 8 5 3 3 8 10 11 10 10 9 7 8 7 7 7 6 6 4 3 1 2 4 5 6 8 10 11 13 14 14 13 13 12 12 11 11 11 11 11 12 12 11 10 9 9 9 10 10 11 10 10 10 10 8 7 8 9 9 9
12 13 13 13 14 14 15 16 16 16 16 15 14 13 12 12 11 10 9 9 8 8 9 9 10 11 10 9 6 5 4 7 9 9 10 9 8 8 8 8 7 7 6 6 5 3 2 3 4 5 6 7 9 10 11 12 13 13 13 13 12 12 12 12 12 13 12 12 12 11 11 10 10 10 11 12 12 12 12 11 10 9 8 9 9 9
13 13 13 14 14 15 15 15 15 15 14 14 13 12 11 10 9 9 8 8 8 7 7 7 8 8 8 8 7 6 5 7 8 8 8 9 8 7 8 8 8 7 6 5 4 4 3 3 4 4 4 7 8 9 10 11 11 12 12 13 13 13 13 13 13 13 12 12 12 12 12 12 11 11 11 12 12 12 12 12 10 9 9 9 10 10
14 14 14 14 15 15 15 15 14 13 13 12 11 10 10 9 8 8 8 8 7 7 6 6 5 5 5 6 6 6 7 8 8 8 7 9 8 7 7 8 7 7 6 5 4 4 4 4 4 4 4 5 7 9 10 11 11 11 12 12 13 13 13 13 13 12 12 12 13 13 13 13 12 12 11 11 12 12 12 11 11 10 9 9 9 10
15 15 15 15 15 15 15 15 14 13 12 11 10 10 9 8 7 7 7 7 6 6 5 5 5 4 4 4 5 6 7 7 8 7 7 7 7 7 7 7 7 6 6 6 6 5 5 5 5 5 5 5 5 7 9 10 11 11 11 12 12 12 12 12 12 12 12 13 13 13 13 13 12 12 11 11 12 12 13 12 12 12 12 11 10 10
15 15 15 15 15 15 15 15 15 14 13 12 11 10 9 8 7 7 6 6 6 5 5 5 4 4 5 5 5 5 5 6 6 6 6 6 6 6 6 6 5 6 6 6 7 7 6 5 5 6 6 6 5 5 6 7 8 9 9 10 11 11 11 11 12 12 12 13 13 13 12 12 12 11 11 11 12 12 12 13 13 13 13 12 12 12
15 15 15 15 15 15 15 15 15 14 13 13 12 11 10 9 8 8 7 7 6 6 6 5 5 5 5 5 5 5 5 5 5 6 5 5 5 5 5 5 5 5 5 5 6 6 7 6 5 4 4 6 7 7 6 6 7 8 8 10 11 11 12 12 13 13 12 12 11 11 11 11 11 11 11 11 12 12 12 12 13 13 13 13 13 13
15 15 15 15 15 15 14 14 14 14 13 13 12 11 11 10 10 9 8 8 7 7 7 6 6 6 6 6 6 6 6 6 5 5 5 5 4 4 4 4 4 4 4 4 5 6 7 7 6 4 4 4 5 7 7 7 8 9 10 12 13 13 13 12 12 12 11 11 11 11 11 11 11 11 12 12 12 12 13 13 13 13 13 13 13 13
15 15 15 15 15 14 14 14 14 14 13 13 13 12 12 11 11 10 10 9 9 8 8 8 7 7 7 7 7 7 6 6 6 6 5 5 5 5 5 5 5 5 5 5 6 6 7 8 8 8 7 6 5 6 7 9 10 11 12 12 12 12 12 12 12 12 12 11 11 11 11 11 12 12 12 13 13 13 14 14 14 13 13 13 13 13
15 15 15 14 14 14 14 14 13 13 13 13 13 12 12 12 11 11 11 11 10 10 9 9 9 9 9 8 8 8 8 7 7 7 7 6 6 6 6 6 6 6 6 7 7 8 8 9 9 10 10 9 9 8 9 11 12 12 11 10 11 13 14 14 13 11 10 10 11 11 11 12 12 12 13 13 14 14 14 14 14 14 14 13 13 13
14 14 14 14 13 13 13 13 12 12 12 12 12 12 12 12 12 11 11 11 11 11 11 10 10 10 10 10 10 9 9 9 8 8 8 8 8 8 8 8 8 8 8 8 9 9 10 10 10 11 11 10 9 8 8 9 11 11 11 11 12 12 13 11 8 6 6 7 8 9 10 11 12 12 13 14 14 15 15 15 15 15 15 14 14 13
14 14 14 13 13 12 12 12 12 11 11 11 11 11 11 11 11 11 11 11 11 11 11 11 11 11 11 10 10 10 10 10 10 9 9 9 9 9 9 10 10 10 10 10 10 11 11 11 11 12 11 11 10 9 8 8 9 10 11 11 11 9 7 7 6 4 4 4 5 7 8 10 11 12 14 15 15 15 15 16 16 16 16 15 15 14
15 14 14 13 12 12 11 11 11 11 11 11 11 10 10 10 10 10 10 11 11 11 11 11 11 11 11 11 11 11 10 10 10 10 10 10 10 10 10 10 10 10 10 11 11 11 11 11 12 12 11 11 10 10 9 9 9 9 10 11 10 9 8 9 9 9 8 7 6 7 8 9 11 13 14 15 16 16 16 17 17 17 17 16 16 16
15 14 14 13 13 12 12 11 11 10 10 10 10 10 10 10 10 10 10 10 11 11 11 11 11 11 10 11 11 11 11 11 11 10 11 11 11 11 10 10 10 10 10 10 10 10 11 11 11 11 10 11 11 10 9 9 9 9 9 10 10 10 11 12 12 12 11 10 9 8 9 10 11 13 14 15 15 16 16 17 17 18 18 18 17 17
16 15 15 14 13 12 12 11 11 10 10 10 10 10 10 10 10 10 10 10 11 11 11 11 11 10 10 10 10 10 10 10 10 10 10 10 10 10 10 10 10 10 10 10 9 9 10 10 10 10 10 10 10 10 10 10 9 9 9 9 9 10 11 12 12 12 11 10 9 9 8 9 10 11 12 13 14 16 16 17 17 17 18 18 18 18
17 16 15 14 13 12 12 11 11 10 10 10 10 10 10 10 10 10 11 11 11 11 11 11 11 11 11 10 10 9 9 9 8 8 8 8 9 9 9 9 9 9 9 9 9 9 9 9 9 9 9 8 8 9 10 10 10 9 9 9 9 9 10 11 12 12 11 9 9 8 8 8 9 9 10 12 13 14 15 16 16 16 17 17 17 17
17 16 15 14 13 13 12 12 11 11 11 11 11 10 10 10 10 11 11 11 11 11 11 11 11 11 11 11 10 9 9 9 8 7 7 8 8 8 8 9 9 9 9 9 9 9 9 9 10 10 11 10 9 9 10 10 9 9 9 9 9 9 10 10 12 12 11 9 8 7 7 7 7 8 9 10 11 12 13 14 14 15 15 16 16 16
16 16 15 15 14 14 13 13 12 12 11 11 11 11 11 11 11 12 12 11 11 12 12 12 12 12 12 11 11 10 9 9 8 8 8 8 8 8 9 9 9 9 9 9 9 9 10 10 11 12 13 13 12 11 11 10 10 9 9 8 8 9 10 10 11 12 11 9 8 6 6 6 7 7 8 9 9 11 12 13 13 13 13 14 14 15
16 16 15 15 14 14 14 13 13 12 12 12 12 13 13 13 13 13 12 12 12 13 13 13 13 12 12 12 11 11 10 10 10 9 9 9 9 9 9 9 9 9 9 9 9 9 9 10 12 13 14 14 14 14 12 11 10 9 9 9 9 9 9 10 10 11 10 9 7 6 5 5 6 6 8 8 9 10 11 12 12 12 11 11 12 13
18 17 16 15 15 14 14 13 13 12 13 13 13 14 14 14 14 14 14 14 14 14 14 13 13 13 13 13 12 12 11 11 11 11 10 9 9 9 9 9 9 9 8 7 7 6 6 6 7 9 11 12 12 12 12 11 10 8 8 8 8 8 9 9 10 10 9 8 7 5 5 5 5 6 7 8 8 8 9 10 11 12 11 10 11 11
Wind_Direction
221 222 221 217 209 203 202 204 205 204 204 205 203 200 199 198 199 201 203 204 204 204 205 206 206 206 206 206 206 207 209 212 216 222 228 234 237 237 236 240 244 244 237 221 199 179 167 162 162 163 164 165 165 164 161 157 154 153 152 148 147 148 148 147 147 148 149 157 167 177 188 198 205 208 209 209 209 212 219 223 223 223 227 230 229 227
211 211 208 206 202 199 199 202 205 205 204 203 201 200 200 200 201 202 203 204 204 205 207 208 208 207 205 204 205 208 212 215 219 223 227 228 227 224 219 221 219 209 196 178 161 152 151 154 161 166 170 173 174 175 174 173 171 170 169 169 168 167 167 165 165 164 165 171 178 187 195 204 208 210 210 209 211 214 219 224 226 224 223 223 220 217
195 195 195 197 197 196 196 198 201 204 204 203 202 201 201 202 204 204 204 205 206 209 211 211 209 207 204 201 201 206 214 214 213 213 214 212 210 208 206 200 190 178 167 156 147 144 147 152 159 166 172 177 180 182 184 185 185 184 185 186 186 186 187 188 190 191 193 196 201 207 211 215 218 219 219 220 221 223 225 231 232 231 227 225 221 217
189 186 188 190 192 194 196 195 196 199 201 202 203 202 203 204 206 207 208 209 211 215 217 215 210 206 205 200 197 200 210 211 208 205 202 201 200 199 193 182 170 160 153 147 144 144 148 153 159 165 170 177 182 186 190 193 195 198 200 201 202 204 206 209 212 214 217 219 222 225 227 229 230 231 232 233 233 234 234 239 243 242 238 235 232 231
188 187 188 186 187 191 195 195 195 195 197 199 201 203 205 207 208 209 211 214 218 221 221 214 208 205 205 200 192 190 198 201 199 195 192 190 188 184 175 163 154 150 146 144 145 147 152 157 163 167 172 178 183 188 195 200 204 208 210 211 213 215 219 223 227 231 233 235 237 239 240 241 241 242 243 244 244 244 244 245 249 250 249 247 244 244
187 189 189 186 185 187 190 192 193 194 194 197 200 202 204 206 208 209 210 213 218 220 217 205 201 202 203 196 186 179 178 181 181 178 175 171 167 161 155 150 147 146 146 147 149 153 158 165 171 177 182 187 192 196 202 208 212 214 217 218 221 225 232 239 244 248 251 251 251 251 252 252 252 252 252 252 251 250 249 249 250 252 253 253 251 250
186 188 188 186 186 187 188 189 191 193 194 194 196 198 199 201 202 204 205 208 210 209 201 188 190 196 196 188 181 175 171 169 166 162 157 153 150 148 148 148 150 151 152 154 157 163 170 177 184 191 198 202 205 206 206 208 211 217 223 230 236 244 254 262 268 272 274 273 272 270 268 265 262 260 259 257 255 253 250 248 247 248 250 252 252 252
180 184 186 184 184 185 186 188 191 194 196 194 191 188 189 191 193 195 198 201 201 196 186 179 182 186 185 181 180 180 179 176 170 162 155 150 148 148 150 153 156 157 159 163 168 174 184 193 202 210 214 215 213 209 209 210 215 223 234 246 258 267 276 284 288 290 292 292 291 289 286 279 272 267 262 258 256 253 250 246 242 240 242 245 247 249
177 179 183 184 182 179 181 186 191 194 196 196 192 186 182 182 183 185 187 188 188 185 181 179 179 180 180 180 182 185 187 187 180 172 164 160 157 157 158 160 162 165 168 169 173 180 190 202 211 217 217 212 210 212 216 221 228 237 250 263 273 281 287 291 294 296 297 298 300 300 296 289 278 266 258 255 254 253 252 246 238 232 232 233 236 241
180 178 180 183 184 183 180 182 187 193 195 197 197 195 189 182 178 177 179 180 181 181 179 179 178 178 179 182 185 187 189 190 188 183 177 174 172 171 172 174 176 179 181 181 181 183 190 196 200 202 202 203 209 219 227 235 243 253 263 273 280 285 289 291 292 293 294 297 300 300 297 288 272 254 246 243 246 250 252 246 238 228 223 221 224 230
177 179 178 180 184 186 185 184 185 188 191 195 198 201 200 192 184 177 175 179 181 181 180 180 181 180 179 182 186 189 191 192 191 190 188 186 185 186 189 191 194 198 201 202 203 205 208 205 198 194 198 205 216 229 239 247 256 264 272 277 282 285 287 286 286 286 287 291 293 292 286 271 254 240 234 230 229 230 240 244 238 228 217 210 211 219
171 175 177 180 182 184 186 186 186 186 187 188 189 193 196 198 195 188 181 180 181 182 181 182 184 185 184 184 187 190 193 193 193 192 192 193 195 197 201 205 210 215 218 222 227 232 235 230 220 212 213 219 230 241 252 259 266 272 277 282 284 285 282 277 273 272 274 275 277 276 269 256 240 227 221 213 208 209 217 229 234 229 214 203 198 204
171 173 174 179 182 183 183 182 181 181 184 186 188 189 192 197 198 196 191 186 184 183 182 183 185 188 190 191 191 192 194 196 196 197 197 199 202 205 209 214 219 224 230 236 243 248 251 248 241 235 234 236 243 252 261 267 273 277 281 285 286 281 271 258 252 252 255 258 261 262 260 251 235 219 204 191 188 193 201 217 229 227 214 199 189 190
168 170 171 176 181 185 185 182 181 183 188 193 195 196 196 197 197 196 193 190 188 186 184 185 187 190 193 196 197 198 200 200 201 203 205 207 210 214 218 223 229 235 241 248 253 256 257 255 250 248 248 249 252 258 265 270 276 280 283 284 281 268 245 229 228 233 240 247 253 255 255 246 225 202 183 177 183 191 201 212 225 227 221 207 196 195
168 169 172 179 186 190 190 188 188 191 195 198 200 200 200 197 194 192 189 186 185 186 186 188 190 193 195 199 202 203 206 207 208 209 211 215 219 222 227 233 239 246 251 257 260 261 261 258 256 254 254 256 258 261 265 270 274 278 279 276 261 234 217 214 219 227 237 245 249 249 244 236 211 186 176 178 185 193 199 206 214 222 223 218 212 211
175 176 180 187 192 195 196 194 194 195 197 200 201 200 197 192 191 191 187 183 182 182 181 181 186 194 201 205 207 207 210 213 214 215 216 219 224 229 233 239 245 251 256 260 262 263 264 262 260 259 258 258 259 262 264 267 270 271 267 248 221 209 210 214 221 231 240 247 249 245 236 219 197 184 179 183 189 195 200 204 207 212 218 222 223 224
182 184 188 191 194 197 199 197 196 196 198 200 201 200 198 195 193 192 190 186 181 178 178 178 178 186 203 211 212 212 212 214 217 219 220 223 228 234 238 242 247 253 258 261 262 263 264 263 262 260 259 258 258 258 259 260 260 253 236 216 207 208 212 218 226 235 242 246 245 238 228 214 199 190 188 189 192 197 204 208 208 208 212 221 230 236
189 192 194 195 197 199 199 198 198 199 201 199 199 200 202 201 199 196 193 188 182 178 181 183 184 181 178 195 211 214 213 214 216 219 222 225 230 237 242 246 249 253 257 260 262 262 262 261 259 257 255 254 252 251 250 247 240 227 213 208 209 212 217 222 229 234 238 236 230 225 224 221 212 202 197 194 194 197 205 211 210 206 202 215 236 248
198 198 198 200 202 202 202 200 200 200 200 199 198 198 198 199 199 197 194 192 188 184 184 186 188 187 182 182 203 210 211 211 213 215 219 224 231 237 243 246 249 252 256 257 259 259 259 256 253 250 248 246 244 242 238 231 222 213 208 209 212 217 220 223 227 231 233 230 222 217 221 227 226 220 212 203 198 199 206 211 204 193 201 233 242 244
207 207 207 206 205 204 204 205 206 205 204 204 201 198 194 194 194 194 194 195 194 192 190 189 190 194 196 197 201 203 204 204 207 211 215 222 231 238 243 246 248 250 252 252 253 253 251 247 243 240 237 235 234 232 228 223 218 213 210 209 212 217 218 219 222 227 236 235 222 209 211 221 226 225 219 211 207 206 213 218 221 228 238 235 230 229
215 216 217 216 212 207 207 211 213 212 211 208 203 198 194 191 190 192 195 196 196 196 196 194 195 198 203 204 199 193 194 194 198 204 212 219 231 240 246 247 248 247 244 242 242 241 238 233 229 226 224 224 225 225 224 223 221 218 213 211 212 213 214 214 217 224 235 234 218 205 210 219 226 227 223 219 216 218 224 229 231 232 234 230 225 222
226 226 226 224 220 217 217 218 217 215 214 210 203 197 194 191 190 192 197 198 197 196 196 196 198 201 204 202 197 193 190 188 192 199 210 217 231 242 248 246 242 236 229 226 225 224 220 217 215 215 217 219 221 224 226 228 227 222 214 210 208 209 209 209 212 218 224 225 220 214 219 225 231 234 233 228 224 224 227 231 234 234 232 232 227 224
233 235 230 224 223 224 225 224 220 216 214 211 207 203 202 199 197 199 201 201 200 199 197 197 197 198 200 199 198 198 199 197 200 206 213 218 228 237 242 234 223 214 207 209 210 208 206 206 208 210 215 219 223 227 231 233 230 222 212 208 206 205 204 204 207 212 220 224 226 227 232 236 242 248 250 247 240 235 233 233 234 234 235 235 232 231
210 211 208 210 213 216 219 222 218 213 210 209 209 209 208 206 206 206 206 205 203 201 198 194 190 188 190 195 197 200 207 213 216 217 219 220 225 228 223 210 198 192 193 199 201 201 202 205 209 213 218 223 229 233 235 234 226 215 206 205 203 201 198 199 202 208 218 226 232 235 240 243 247 251 256 257 255 253 251 248 245 242 239 238 236 234
198 190 184 186 190 194 198 201 203 203 202 201 201 202 202 203 204 205 203 202 199 196 192 186 177 172 180 189 193 199 211 221 224 220 218 216 215 213 207 194 185 184 188 195 199 203 206 211 216 221 227 232 235 236 232 224 212 203 199 200 198 194 192 193 197 203 211 219 228 237 243 244 245 246 247 250 253 254 256 257 256 255 253 250 246 242
203 194 183 178 178 180 183 183 185 187 191 191 192 193 193 194 194 194 192 192 190 187 181 172 169 175 184 190 196 203 214 222 225 222 217 210 203 201 202 193 186 185 189 196 202 207 212 218 224 231 236 239 237 229 215 202 193 191 194 192 190 188 190 194 199 205 211 218 227 236 244 246 246 244 243 244 245 247 249 251 253 254 256 256 254 251
203 196 187 180 177 178 179 178 176 177 180 184 185 186 187 187 185 181 178 183 186 183 176 169 171 182 190 194 201 208 216 219 220 217 212 205 200 198 200 195 191 190 193 199 206 211 217 223 230 236 240 239 232 218 202 186 176 176 185 185 185 189 193 200 206 212 219 229 235 239 244 248 247 244 241 240 240 241 243 246 249 251 253 254 254 252
190 186 181 179 178 178 178 176 174 173 175 179 182 185 187 187 181 177 178 183 186 185 180 177 175 178 186 192 202 210 215 215 212 207 202 199 200 201 197 196 194 193 197 203 211 218 223 229 234 237 237 233 223 209 196 183 173 170 175 181 188 194 199 205 211 218 230 244 250 246 241 244 246 244 241 239 239 239 241 244 248 251 252 252 252 251
179 175 172 171 172 174 174 173 171 171 173 177 180 185 189 192 190 188 187 187 186 185 184 185 184 182 182 190 199 208 213 212 207 202 197 195 199 202 196 194 194 195 198 204 214 224 228 231 233 232 227 221 209 198 192 187 183 180 182 186 192 198 203 209 216 226 242 262 268 257 237 231 235 239 240 239 239 240 242 244 247 249 249 249 250 252
177 172 168 166 166 168 168 166 165 166 170 174 178 181 186 193 198 199 195 191 189 188 189 191 191 187 177 172 181 201 213 213 207 201 198 195 196 197 198 194 194 196 195 195 199 211 223 227 225 219 213 207 200 194 191 191 191 192 193 195 198 204 210 217 226 240 258 276 282 272 249 233 227 229 232 235 237 238 239 241 244 247 248 249 251 254
175 172 168 166 165 165 163 160 159 160 166 171 175 178 182 187 192 194 193 194 195 196 197 197 196 192 183 162 150 182 207 208 203 199 198 195 194 194 195 189 189 192 192 186 176 167 187 205 203 200 198 198 197 196 196 197 198 201 203 205 208 214 222 231 242 257 271 282 286 282 267 247 234 229 228 229 231 232 232 233 238 245 248 250 251 254
172 171 168 166 164 163 162 161 160 163 167 171 174 178 182 185 188 188 188 192 196 199 200 199 197 195 193 185 180 180 182 190 192 193 194 191 190 192 194 187 183 185 188 189 182 164 137 145 169 182 187 193 197 200 203 205 208 212 215 218 222 229 238 246 256 267 276 282 285 284 277 264 250 240 235 232 230 230 230 229 232 240 247 248 249 251
168 167 165 163 162 162 162 163 165 167 170 173 175 179 182 185 186 186 184 184 187 189 192 191 190 191 193 196 196 189 178 177 179 183 186 186 184 186 191 188 184 183 187 192 196 195 174 156 162 176 187 194 200 205 209 213 217 221 226 231 237 243 249 256 263 270 275 278 280 280 278 274 265 256 248 242 237 235 234 232 232 236 245 247 248 249
165 164 163 161 161 161 163 165 167 170 174 176 179 182 183 184 183 181 178 177 177 179 182 184 184 185 187 191 193 190 185 180 176 176 179 184 183 181 188 189 190 190 192 196 206 213 207 196 184 182 193 203 209 213 217 221 225 229 234 239 245 251 256 260 265 268 271 273 275 276 277 275 272 265 257 249 244 240 238 238 235 235 241 245 248 249
166 165 164 164 164 164 166 168 171 174 178 181 184 186 186 185 183 179 176 174 174 175 179 184 187 188 188 190 190 190 190 185 182 180 179 184 185 186 189 193 199 203 202 203 205 205 206 208 203 195 196 207 217 223 226 229 232 235 239 243 248 252 256 259 262 264 268 271 274 277 277 275 272 266 258 250 244 240 237 236 233 229 229 235 243 248
169 168 169 169 170 170 171 173 176 179 183 186 189 190 190 190 189 186 183 182 181 182 185 190 195 199 198 197 194 191 189 185 184 184 183 185 190 194 194 199 205 209 207 205 201 196 193 199 205 210 212 215 222 228 230 231 233 237 241 245 248 251 254 258 261 265 270 274 278 278 277 275 270 264 256 248 242 238 235 234 231 228 222 220 226 236
176 175 176 177 177 177 177 179 182 184 186 190 192 194 194 196 198 198 198 198 199 202 205 208 210 212 211 208 203 196 189 186 186 187 187 189 194 199 201 202 207 211 208 206 202 199 196 194 203 216 224 223 223 224 225 229 232 236 241 246 250 253 258 263 268 272 275 277 278 276 274 270 265 259 253 247 243 241 239 238 237 235 230 225 222 225
183 184 184 185 186 186 186 187 189 190 192 195 196 198 199 202 204 207 209 212 215 218 220 221 221 219 216 213 209 205 202 197 195 195 196 199 203 206 207 209 212 216 214 212 211 209 204 197 196 206 219 225 227 229 230 234 237 241 246 253 258 263 268 272 275 277 277 277 274 271 267 262 257 252 249 246 245 244 243 243 242 241 239 236 232 231
189 190 191 192 193 194 194 195 196 198 200 201 203 205 207 210 213 215 217 219 221 222 222 221 218 215 212 209 208 208 208 206 206 207 210 215 220 224 225 225 226 228 229 225 224 222 218 212 207 205 210 220 228 234 240 245 248 253 260 267 270 273 275 278 279 280 278 274 269 263 257 253 249 246 244 245 245 244 244 245 246 246 245 244 241 239
193 194 194 194 195 196 198 199 201 202 204 206 208 211 213 215 217 219 221 222 222 222 220 217 214 211 209 207 207 208 210 212 214 217 221 227 235 243 247 248 247 247 246 242 238 234 231 229 228 229 229 232 240 246 251 255 259 265 272 278 281 282 282 283 284 282 277 270 262 254 249 245 243 242 241 242 243 243 244 246 248 250 251 251 250 248
194 194 193 192 193 195 197 199 201 203 205 208 210 212 214 216 217 217 217 218 217 216 214 211 209 208 208 207 207 210 214 217 221 224 228 234 241 249 255 257 257 256 253 248 245 243 241 239 240 242 245 249 255 261 264 265 268 272 277 279 283 287 290 291 288 283 274 263 254 246 241 238 238 238 239 241 243 244 246 248 250 252 254 255 255 254
193 191 190 189 190 192 194 196 198 200 203 206 208 210 212 213 213 212 212 210 209 208 207 207 206 206 207 208 209 212 216 221 226 231 236 241 246 251 255 257 257 255 253 249 247 245 245 245 246 248 250 254 258 263 267 270 272 274 274 275 282 290 295 292 288 282 269 257 247 239 233 231 232 234 238 240 242 245 247 250 252 254 255 256 257 257
188 186 185 185 185 187 189 190 192 195 197 200 202 203 205 205 206 206 205 204 203 203 203 203 204 205 207 209 212 215 218 223 229 235 241 245 249 252 253 253 253 252 250 248 246 245 246 248 249 252 256 259 259 259 265 270 274 275 273 275 279 283 282 276 275 275 267 257 246 236 231 230 234 238 240 242 243 246 248 251 253 255 256 258 259 259
181 179 178 178 178 179 182 184 186 188 189 190 191 192 192 194 195 196 197 198 198 199 199 201 203 206 208 212 215 220 224 228 233 238 242 246 248 249 249 249 247 246 246 245 245 245 247 248 251 254 259 261 259 257 260 265 270 272 274 276 274 266 260 267 272 271 266 258 250 244 241 242 244 246 246 247 247 248 250 252 254 256 257 258 260 261
173 172 173 173 173 175 176 177 177 178 179 180 182 182 183 185 188 190 192 194 195 196 198 201 203 205 208 215 220 224 230 235 238 240 242 243 244 244 243 242 240 239 240 242 244 246 247 249 253 259 262 262 259 255 254 259 264 268 270 272 270 266 264 269 271 270 266 262 257 254 253 252 253 254 255 254 252 251 251 252 254 256 258 259 260 261
170 171 171 172 172 173 173 171 171 171 172 174 176 179 181 183 186 189 193 195 196 198 201 205 207 206 209 217 222 226 230 236 239 240 238 237 237 236 235 234 233 233 234 236 240 243 246 250 255 260 262 261 257 255 254 255 258 262 266 268 267 266 267 270 272 272 271 270 268 266 262 258 259 261 262 260 256 252 250 250 251 253 255 258 260 261
172 173 173 173 174 173 173 172 172 172 173 175 177 180 183 185 188 191 195 199 201 203 205 210 213 215 217 220 224 226 227 231 234 235 230 227 226 225 224 224 225 227 229 232 236 240 244 249 252 253 252 250 251 253 254 254 254 256 261 264 265 265 264 266 271 277 281 280 279 277 273 268 268 269 268 265 261 256 252 250 249 250 252 254 256 258
177 177 177 177 177 178 178 179 180 181 182 183 184 186 188 191 193 196 198 201 204 207 209 212 216 220 223 226 228 229 229 228 230 229 222 219 217 216 216 216 218 222 226 231 236 241 245 248 249 249 248 245 247 252 256 255 254 255 258 261 262 263 264 266 274 281 284 284 283 280 278 275 276 276 276 276 273 269 261 252 247 247 248 250 252 254
186 185 185 184 185 186 187 188 189 190 191 192 193 194 195 198 201 203 204 205 207 210 213 215 218 221 225 226 228 229 230 229 228 225 221 217 214 213 213 214 217 220 225 232 238 244 250 253 254 254 253 250 248 250 255 256 256 255 256 256 257 259 262 267 274 282 287 288 285 279 272 267 267 269 275 278 280 278 273 262 251 244 243 246 249 251
197 196 195 194 194 194 195 195 195 196 197 198 199 200 202 204 207 209 210 210 212 214 217 219 221 223 226 227 227 227 226 225 224 223 221 219 217 216 215 215 217 220 226 233 241 250 259 265 265 264 263 260 255 250 249 252 255 256 255 253 252 255 259 264 272 281 288 291 288 278 265 257 257 263 270 273 275 277 278 273 263 252 242 241 244 247
203 204 204 203 203 203 203 202 202 201 201 202 204 205 206 209 211 213 214 214 216 218 220 223 224 225 227 229 229 228 226 225 224 222 221 221 220 219 218 217 217 218 221 228 238 251 263 271 275 274 271 266 261 254 246 244 246 250 250 249 250 252 257 261 270 279 287 291 288 278 263 254 252 257 265 266 269 272 276 276 273 266 253 244 241 242